Location: Rounton
(54.4000°N, 1.3500°W)
Time: 03:44:15
(UTC+00:00)

A-11 Canister half - Pass Details

Date: 04 December 2021
Orbit: 1524 x 1684 km, 47.3° (Epoch: 17 January)

Event Time Altitude Azimuth Distance (km) Brightness Sun altitude
Exits shadow 07:18:38 - 279° (W) 4,426 10.8 -6.7°
Reaches altitude 10° 07:20:27 10° 275° (W) 3,913 10.6 -6.5°
Maximum altitude 07:29:06 35° 214° (SW) 2,407 10.0 -5.4°
Drops below altitude 10° 07:37:30 10° 154° (SSE) 3,795 12.2 -4.4°
Sets 07:40:52 0° 146° (SE) 4,755 13.1 -4.0°
